Hall Beach,

5:01 PM EDT on October 18, 2017 (GMT -0400)
Hall Beach

Weather History for CYUX - September, 2012

Change the Weather History Date:

Thursday, September 27, 2012

  Actual Average Record
Temperature  
Mean Temperature 32 °F -  
Max Temperature 35 °F 22 °F 39 °F (1996)
Min Temperature 28 °F 10 °F 15 °F (2004)
Degree Days  
Heating Degree Days 34    
Moisture  
Dew Point 31 °F    
Average Humidity 92    
Maximum Humidity 100    
Minimum Humidity 75    
Precipitation  
Precipitation 0.00 in 0.03 in - ()
Sea Level Pressure  
Sea Level Pressure 29.80 in    
Wind  
Wind Speed 12 mph ()    
Max Wind Speed 21 mph    
Max Gust Speed 28 mph    
Visibility 12.1 miles    
Events Rain    
Averages and records for this station are not official NWS values.
T = Trace of Precipitation, MM = Missing Value Source: Averaged Metar Reports

Daily Weather History Graph

Daily Weather History Graph

Search for Another Location

Airport or City:

Trip Planner

Search our weather history database for the weather conditions in past years. The results will help you decide how hot, cold, wet, or windy it might be!

Date:

Astronomy

Sep. 27, 2012 Rise Set
Actual Time 7:26 AM EDT 7:03 PM EDT
Civil Twilight 6:28 AM EDT 8:00 PM EDT
Nautical Twilight 5:18 AM EDT 9:10 PM EDT
Astronomical Twilight 3:53 AM EDT 10:32 PM EDT
Moon 6:10 PM EDT (9/27) 3:58 AM EDT (9/27)
Length of Visible Light 13h 31m
Length of Day
11h 37m
Waxing Gibbous, 94% of the Moon is Illuminated
Sep 27
Waxing Gibbous
Sep 29
Full
Oct 8
Last Quarter
Oct 15
New
Oct 21
First Quarter

Hourly Weather History & Observations

Time (EDT) Temp. Windchill Dew Point Humidity Pressure Visibility Wind Dir Wind Speed Gust Speed Precip Events Conditions
12:00 AM 35.6 °F 27.1 °F 33.8 °F 93% 29.64 in 9.0 mi WSW 12.7 mph - N/A   Overcast
12:06 AM 35.6 °F 27.5 °F 33.8 °F 93% 29.64 in 9.0 mi WSW 11.5 mph - N/A   Overcast
1:00 AM 35.6 °F 27.1 °F 33.8 °F 93% 29.64 in 9.0 mi West 12.7 mph - N/A   Overcast
2:00 AM 35.6 °F 27.1 °F 33.8 °F 93% 29.65 in 9.0 mi WNW 12.7 mph - N/A   Overcast
2:13 AM 35.6 °F 25.9 °F 33.8 °F 93% 29.66 in 9.0 mi WNW 16.1 mph - N/A Rain Light Rain
2:38 AM 33.8 °F 24.8 °F 33.8 °F 100% 29.66 in 9.0 mi West 12.7 mph - N/A   Overcast
3:00 AM 35.6 °F 25.9 °F 33.8 °F 93% 29.66 in 9.0 mi West 16.1 mph - N/A   Overcast
4:00 AM 33.8 °F 23.2 °F 33.8 °F 100% 29.67 in 9.0 mi WNW 17.3 mph - N/A   Overcast
5:00 AM 33.8 °F 22.5 °F 33.8 °F 100% 29.69 in 9.0 mi WNW 19.6 mph - N/A   Overcast
6:00 AM 35.6 °F 24.5 °F 33.8 °F 93% 29.70 in 9.0 mi WNW 20.7 mph - N/A   Overcast
7:00 AM 33.8 °F 23.9 °F 32.0 °F 93% 29.73 in 9.0 mi NW 15.0 mph - N/A   Mostly Cloudy
8:00 AM 33.8 °F 22.8 °F 32.0 °F 93% 29.75 in 15.0 mi NW 18.4 mph - N/A   Mostly Cloudy
8:47 AM 33.8 °F 23.2 °F 32.0 °F 93% 29.78 in 15.0 mi NW 17.3 mph - N/A   Mostly Cloudy
9:00 AM 33.8 °F 23.5 °F 32.0 °F 93% 29.78 in 15.0 mi NNW 16.1 mph 21.9 mph N/A   Mostly Cloudy
9:13 AM 33.8 °F 24.3 °F 32.0 °F 93% 29.79 in 15.0 mi NW 13.8 mph - N/A   Mostly Cloudy
10:00 AM 33.8 °F 22.8 °F 32.0 °F 93% 29.81 in 15.0 mi NNW 18.4 mph 24.2 mph N/A   Mostly Cloudy
11:00 AM 33.8 °F 22.2 °F 30.2 °F 87% 29.83 in 15.0 mi NW 20.7 mph 27.6 mph N/A   Mostly Cloudy
12:00 PM 33.8 °F 22.8 °F 30.2 °F 87% 29.85 in 15.0 mi NW 18.4 mph - N/A   Mostly Cloudy
1:00 PM 33.8 °F 23.2 °F 28.4 °F 81% 29.87 in 15.0 mi NNW 17.3 mph - N/A   Mostly Cloudy
2:00 PM 33.8 °F 24.3 °F 28.4 °F 81% 29.89 in 15.0 mi NNW 13.8 mph - N/A   Mostly Cloudy
3:00 PM 33.8 °F 24.8 °F 28.4 °F 81% 29.91 in 15.0 mi NW 12.7 mph - N/A   Scattered Clouds
4:00 PM 35.6 °F 28.6 °F 28.4 °F 75% 29.92 in 15.0 mi NW 9.2 mph - N/A   Partly Cloudy
5:00 PM 33.8 °F 25.8 °F 28.4 °F 81% 29.93 in 15.0 mi NW 10.4 mph - N/A   Partly Cloudy
6:00 PM 32.0 °F 24.8 °F 30.2 °F 93% 29.94 in 15.0 mi NNW 8.1 mph - N/A   Mostly Cloudy
7:00 PM 30.2 °F 24.3 °F 28.4 °F 93% 29.96 in 15.0 mi West 5.8 mph - N/A   Scattered Clouds
8:00 PM 30.2 °F 26.7 °F 28.4 °F 93% 29.97 in 15.0 mi WNW 3.5 mph - N/A   Scattered Clouds
9:00 PM 30.2 °F 26.7 °F 28.4 °F 93% 29.97 in 9.0 mi West 3.5 mph - N/A   Clear
10:00 PM 28.4 °F 24.6 °F 28.4 °F 100% 29.97 in 9.0 mi SW 3.5 mph - N/A   Clear
11:00 PM 28.4 °F 22.2 °F 28.4 °F 100% 29.95 in 9.0 mi SSW 5.8 mph - N/A   Clear